WetterOnline ( https://www.wetteronline.ch )

Wetter aktuell Diepholz

Aktuelles Wetter: Diepholz (40m)

6-stündlich | Neueste Meldungen
Ortszeit Temperatur Wetter
Fr, 23.08. 14:00 24.9° C wolkenlos
Fr, 23.08. 8:00 14.2° C fast wolkenlos
Fr, 23.08. 2:00 12.3° C wolkig
Do, 22.08. 20:00 23.7° C leicht bewölkt
Do, 22.08. 14:00 25.1° C leicht bewölkt
Do, 22.08. 8:00 11.5° C wolkenlos
Do, 22.08. 2:00 10.2° C fast wolkenlos
Mi, 21.08. 20:00 20.4° C leicht bewölkt
Ortszeit Temperatur Wetter
Fr, 23.08. 17:00 26.6° C leicht bewölkt
Fr, 23.08. 16:50 26.6° C wolkig
Fr, 23.08. 16:40 26.3° C wolkig
Fr, 23.08. 16:30 26.3° C wolkig
Fr, 23.08. 16:20 26.3° C wolkig
Fr, 23.08. 16:10 26.5° C wolkig
Fr, 23.08. 16:00 26.8° C leicht bewölkt
Fr, 23.08. 15:30 26.0° C wolkig
Fr, 23.08. 15:00 25.5° C leicht bewölkt
Fr, 23.08. 14:30 25.2° C leicht bewölkt
Fr, 23.08. 14:00 24.9° C wolkenlos
Ortszeit Relative Feuchte Sichtweite
Fr, 23.08. 14:00 43% 17 km
Fr, 23.08. 8:00 90% 2.9 km
Fr, 23.08. 2:00 89% 17 km
Do, 22.08. 20:00 42% 55 km
Do, 22.08. 14:00 35% 28 km
Do, 22.08. 8:00 88% 10 km
Do, 22.08. 2:00 91% 30 km
Mi, 21.08. 20:00 44% 55 km
Ortszeit Relative Feuchte Sichtweite
Fr, 23.08. 17:00 37% 35 km
Fr, 23.08. 16:50 37% -
Fr, 23.08. 16:40 35% -
Fr, 23.08. 16:30 33% 35 km
Fr, 23.08. 16:20 33% -
Fr, 23.08. 16:10 34% -
Fr, 23.08. 16:00 34% 30 km
Fr, 23.08. 15:30 37% 21 km
Fr, 23.08. 15:00 42% 16 km
Fr, 23.08. 14:30 42% 17 km
Fr, 23.08. 14:00 43% 17 km
Ortszeit Niederschlagsmenge Niederschlagsart
Fr, 23.08. 14:00 0.0 l/m2 in 6 Std. -
Fr, 23.08. 8:00 0.0 l/m2 in 12 Std. -
Fr, 23.08. 2:00 0.0 l/m2 in 6 Std. -
Do, 22.08. 20:00 0.0 l/m2 in 12 Std. -
Do, 22.08. 14:00 0.0 l/m2 in 6 Std. -
Do, 22.08. 8:00 0.0 l/m2 in 12 Std. -
Do, 22.08. 2:00 0.0 l/m2 in 6 Std. -
Mi, 21.08. 20:00 0.0 l/m2 in 12 Std. -
Ortszeit Niederschlagsmenge Niederschlagsart
Fr, 23.08. 17:00 0.0 l/m2 in 1 Std. -
Fr, 23.08. 16:50 keine Meldung -
Fr, 23.08. 16:40 keine Meldung -
Fr, 23.08. 16:30 0.0 l/m2 in 1 Std. -
Fr, 23.08. 16:20 keine Meldung -
Fr, 23.08. 16:10 keine Meldung -
Fr, 23.08. 16:00 0.0 l/m2 in 1 Std. -
Fr, 23.08. 15:30 0.0 l/m2 in 1 Std. -
Fr, 23.08. 15:00 0.0 l/m2 in 1 Std. -
Fr, 23.08. 14:30 0.0 l/m2 in 1 Std. -
Fr, 23.08. 14:00 0.0 l/m2 in 1 Std. -
Ortszeit Stärke Spitze Richtung
km/h Bft. km/h Grad Sektor
Fr, 23.08. 14:00 9 2 15 160° S
Fr, 23.08. 8:00 2 1 9 170° S
Fr, 23.08. 2:00 2 1 11 340° N
Do, 22.08. 20:00 7 2 30 300° NW
Do, 22.08. 14:00 22 4 32 210° SW
Do, 22.08. 8:00 4 1 7 140° SO
Do, 22.08. 2:00 0 0 7 - -
Mi, 21.08. 20:00 4 1 22 130° SO
Ortszeit Stärke Spitze Richtung
km/h Bft. km/h Grad Sektor
Fr, 23.08. 17:00 7 2 18 100° O
Fr, 23.08. 16:50 7 2 - 100° O
Fr, 23.08. 16:40 9 2 - 120° SO
Fr, 23.08. 16:30 4 1 11 20° N
Fr, 23.08. 16:20 4 1 - 20° N
Fr, 23.08. 16:10 7 2 - 20° N
Fr, 23.08. 16:00 4 1 11 130° SO
Fr, 23.08. 15:30 7 2 11 350° N
Fr, 23.08. 15:00 6 1 11 290° W
Fr, 23.08. 14:30 7 2 11 140° SO
Fr, 23.08. 14:00 9 2 15 160° S
Ortszeit Untergrenze Bedeckung Gattung
total tief tief mittel hoch
Fr, 23.08. 14:00 9000 m 0/8 0/8 - - -
Fr, 23.08. 8:00 10500 m 1/8 0/8 - - -
Fr, 23.08. 2:00 10500 m 8/8 0/8 - - -
Do, 22.08. 20:00 9000 m 3/8 0/8 - - -
Do, 22.08. 14:00 12000 m 5/8 0/8 - - -
Do, 22.08. 8:00 - 0/8 0/8 - - -
Do, 22.08. 2:00 9000 m 1/8 0/8 - - -
Mi, 21.08. 20:00 7800 m 8/8 0/8 - - -
Ortszeit Bedeckungsgrad in Achtel und Wolkenuntergrenze
Fr, 23.08. 17:00 5(9000m) 8(10500m) 8(12000m)
Fr, 23.08. 16:50 5(9000m) 8(10500m) 8(12000m)
Fr, 23.08. 16:40 7(9000m) 8(10500m) 8(12000m)
Fr, 23.08. 16:30 5(9000m) 8(10500m) 8(12000m)
Fr, 23.08. 16:20 5(9000m) 8(10500m)
Fr, 23.08. 16:10 1(9000m) 8(10500m)
Fr, 23.08. 16:00 1(9000m) 7(10500m) 7(12000m)
Fr, 23.08. 15:30 7(9000m) 7(12000m)
Fr, 23.08. 15:00 3(9000m) 4(10500m)
Fr, 23.08. 14:30 3(9000m) 5(12000m) 6(12000m)
Fr, 23.08. 14:00 1(9000m)
Ortszeit Luftdruck NN (hPa) Tendenz (hPa in 3 Std.)
Fr, 23.08. 14:00 1026 - 0,8
Fr, 23.08. 8:00 1026 + 0,3
Fr, 23.08. 2:00 1026 + 0,6
Do, 22.08. 20:00 1024 - 0,1
Do, 22.08. 14:00 1025 - 0,8
Do, 22.08. 8:00 1026 - 0,5
Do, 22.08. 2:00 1028 - 0,5
Mi, 21.08. 20:00 1027 - 0,7
Ortszeit Luftdruck NN (hPa) Tendenz (hPa in 3 Std.)
Fr, 23.08. 17:00 1025 - 1,0
Fr, 23.08. 16:50 1025 keine Meldung
Fr, 23.08. 16:40 1025 keine Meldung
Fr, 23.08. 16:30 1025 - 1,1
Fr, 23.08. 16:20 1025 keine Meldung
Fr, 23.08. 16:10 1025 keine Meldung
Fr, 23.08. 16:00 1025 - 1,1
Fr, 23.08. 15:30 1026 - 1,2
Fr, 23.08. 15:00 1026 - 1,0
Fr, 23.08. 14:30 1026 - 1,0
Fr, 23.08. 14:00 1026 - 0,8
Ortszeit Schneehöhe (cm)
Fr, 23.08. 14:00 -
Fr, 23.08. 8:00 -
Fr, 23.08. 2:00 -
Do, 22.08. 20:00 -
Do, 22.08. 14:00 -
Do, 22.08. 8:00 -
Do, 22.08. 2:00 -
Mi, 21.08. 20:00 -
Ortszeit Schneehöhe (cm)
Fr, 23.08. 17:00 -
Fr, 23.08. 16:50 -
Fr, 23.08. 16:40 -
Fr, 23.08. 16:30 -
Fr, 23.08. 16:20 -
Fr, 23.08. 16:10 -
Fr, 23.08. 16:00 -
Fr, 23.08. 15:30 -
Fr, 23.08. 15:00 -
Fr, 23.08. 14:30 -
Fr, 23.08. 14:00 -
Link zu dieser Seite / Seite empfehlen

Das Wetter in ...